| time (UTC) | temp C | wind direction | speed KPH | gust KPH | rain 1hr cm | rain 24hr cm | rain mn cm | humidity % | barometer mb |
| 20260905182515 | 31 | 267 | 8.0 | 14.5 | 0.00 | 0.00 | 0.00 | 29 | 1021.1 |
| 20260905181515 | 31 | 268 | 4.8 | 11.3 | 0.00 | 0.00 | 0.00 | 29 | 1021.0 |
| 20260905180515 | 31 | 266 | 4.8 | 11.3 | 0.00 | 0.00 | 0.00 | 28 | 1021.1 |
| 20260905175515 | 31 | 265 | 6.4 | 14.5 | 0.00 | 0.00 | 0.00 | 28 | 1021.1 |
| 20260905174515 | 31 | 271 | 8.0 | 14.5 | 0.00 | 0.00 | 0.00 | 27 | 1021.0 |
| 20260905173515 | 32 | 271 | 8.0 | 12.9 | 0.00 | 0.00 | 0.00 | 27 | 1020.9 |
| 20260905172515 | 32 | 269 | 6.4 | 12.9 | 0.00 | 0.00 | 0.00 | 26 | 1021.0 |
| 20260905171515 | 32 | 266 | 8.0 | 14.5 | 0.00 | 0.00 | 0.00 | 26 | 1021.1 |
| 20260905170515 | 32 | 267 | 8.0 | 14.5 | 0.00 | 0.00 | 0.00 | 26 | 1021.1 |
| 20260905165515 | 32 | 283 | 4.8 | 16.1 | 0.00 | 0.00 | 0.00 | 26 | 1021.0 |
| 20260905164515 | 32 | 273 | 8.0 | 14.5 | 0.00 | 0.00 | 0.00 | 26 | 1021.1 |
| 20260905163515 | 32 | 279 | 6.4 | 14.5 | 0.00 | 0.00 | 0.00 | 25 | 1021.0 |
| 20260905162515 | 33 | 273 | 8.0 | 16.1 | 0.00 | 0.00 | 0.00 | 25 | 1021.1 |
| 20260905161515 | 33 | 274 | 8.0 | 17.7 | 0.00 | 0.00 | 0.00 | 25 | 1021.1 |
| 20260905160555 | 33 | 276 | 8.0 | 19.3 | 0.00 | 0.00 | 0.00 | 24 | 1021.3 |
| 20260905155515 | 33 | 278 | 4.8 | 12.9 | 0.00 | 0.00 | 0.00 | 24 | 1021.2 |
| 20260905154515 | 33 | 279 | 9.7 | 19.3 | 0.00 | 0.00 | 0.00 | 23 | 1021.2 |
| 20260905153515 | 33 | 284 | 9.7 | 22.5 | 0.00 | 0.00 | 0.00 | 23 | 1021.2 |
| 20260905152555 | 34 | 282 | 9.7 | 17.7 | 0.00 | 0.00 | 0.00 | 23 | 1021.2 |
| 20260905151515 | 35 | 302 | 6.4 | 19.3 | 0.00 | 0.00 | 0.00 | 23 | 1021.2 |
| 20260905150516 | 35 | 307 | 6.4 | 12.9 | 0.00 | 0.00 | 0.00 | 22 | 1021.1 |
| 20260905145555 | 35 | 289 | 4.8 | 16.1 | 0.00 | 0.00 | 0.00 | 22 | 1021.0 |
| 20260905144515 | 35 | 333 | 8.0 | 16.1 | 0.00 | 0.00 | 0.00 | 22 | 1021.1 |
| 20260905143515 | 35 | 290 | 6.4 | 16.1 | 0.00 | 0.00 | 0.00 | 22 | 1021.1 |
| 20260905142555 | 35 | 283 | 8.0 | 17.7 | 0.00 | 0.00 | 0.00 | 22 | 1021.2 |
| 20260905141515 | 35 | 306 | 8.0 | 17.7 | 0.00 | 0.00 | 0.00 | 22 | 1021.3 |
| 20260905140515 | 35 | 301 | 9.7 | 20.9 | 0.00 | 0.00 | 0.00 | 22 | 1021.4 |
| 20260905135515 | 35 | 307 | 8.0 | 19.3 | 0.00 | 0.00 | 0.00 | 22 | 1021.5 |
| 20260905134515 | 35 | 286 | 11.3 | 24.1 | 0.00 | 0.00 | 0.00 | 21 | 1021.6 |
| 20260905133515 | 35 | 283 | 12.9 | 22.5 | 0.00 | 0.00 | 0.00 | 21 | 1021.7 |
| 20260905132515 | 35 | 292 | 11.3 | 24.1 | 0.00 | 0.00 | 0.00 | 21 | 1021.7 |
| 20260905131515 | 35 | 287 | 8.0 | 22.5 | 0.00 | 0.00 | 0.00 | 25 | 1022.0 |
| 20260905130515 | 35 | 306 | 8.0 | 17.7 | 0.00 | 0.00 | 0.00 | 24 | 1022.0 |
| 20260905125555 | 35 | 289 | 8.0 | 17.7 | 0.00 | 0.00 | 0.00 | 24 | 1022.0 |
| 20260905124515 | 35 | 271 | 8.0 | 16.1 | 0.00 | 0.00 | 0.00 | 23 | 1022.1 |
| 20260905123515 | 36 | 270 | 8.0 | 17.7 | 0.00 | 0.00 | 0.00 | 21 | 1022.2 |
| 20260905122515 | 36 | 270 | 9.7 | 16.1 | 0.00 | 0.00 | 0.00 | 21 | 1022.3 |
| 20260905121515 | 35 | 266 | 4.8 | 11.3 | 0.00 | 0.00 | 0.00 | 25 | 1022.3 |
| 20260905120515 | 35 | 270 | 6.4 | 12.9 | 0.00 | 0.00 | 0.00 | 25 | 1022.5 |
| 20260905115516 | 35 | 269 | 8.0 | 16.1 | 0.00 | 0.00 | 0.00 | 25 | 1022.5 |
| 20260905114515 | 35 | 278 | 3.2 | 6.4 | 0.00 | 0.00 | 0.00 | 27 | 1022.7 |
| 20260905113515 | 34 | 283 | 1.6 | 6.4 | 0.00 | 0.00 | 0.00 | 28 | 1022.7 |
| 20260905112555 | 34 | 276 | 3.2 | 8.0 | 0.00 | 0.00 | 0.00 | 28 | 1022.8 |
| 20260905111515 | 34 | 269 | 4.8 | 9.7 | 0.00 | 0.00 | 0.00 | 27 | 1022.9 |
| 20260905110515 | 34 | 276 | 0.0 | 6.4 | 0.00 | 0.00 | 0.00 | 27 | 1022.9 |
| 20260905105515 | 33 | 273 | 1.6 | 4.8 | 0.00 | 0.00 | 0.00 | 28 | 1023.0 |
| 20260905104615 | 33 | 276 | 1.6 | 6.4 | 0.00 | 0.00 | 0.00 | 29 | 1023.1 |
| 20260905103555 | 32 | 276 | 0.0 | 3.2 | 0.00 | 0.00 | 0.00 | 30 | 1023.0 |
| 20260905102516 | 32 | 278 | 3.2 | 8.0 | 0.00 | 0.00 | 0.00 | 30 | 1023.1 |
| 20260905101555 | 32 | 334 | 1.6 | 4.8 | 0.00 | 0.00 | 0.00 | 31 | 1023.3 |
| 20260905100515 | 31 | 306 | 1.6 | 3.2 | 0.00 | 0.00 | 0.00 | 32 | 1023.3 |
| 20260905095555 | 31 | 274 | 1.6 | 4.8 | 0.00 | 0.00 | 0.00 | 31 | 1023.3 |
| 20260905094515 | 31 | 181 | 1.6 | 4.8 | 0.00 | 0.00 | 0.00 | 32 | 1023.3 |
| 20260905093555 | 30 | 30 | 1.6 | 4.8 | 0.00 | 0.00 | 0.00 | 33 | 1023.2 |
| 20260905092515 | 30 | 43 | 1.6 | 6.4 | 0.00 | 0.00 | 0.00 | 33 | 1023.0 |
| 20260905091515 | 28 | 40 | 3.2 | 8.0 | 0.00 | 0.00 | 0.00 | 34 | 1022.8 |
| 20260905090555 | 28 | 47 | 6.4 | 12.9 | 0.00 | 0.00 | 0.00 | 34 | 1022.6 |
| 20260905085515 | 27 | 56 | 4.8 | 11.3 | 0.00 | 0.00 | 0.00 | 34 | 1022.4 |
| 20260905084515 | 27 | 54 | 4.8 | 9.7 | 0.00 | 0.00 | 0.00 | 34 | 1022.4 |
| 20260905083515 | 27 | 49 | 4.8 | 11.3 | 0.00 | 0.00 | 0.00 | 35 | 1022.4 |
| 20260905082515 | 27 | 66 | 4.8 | 8.0 | 0.00 | 0.00 | 0.00 | 35 | 1022.5 |
| 20260905081516 | 27 | 56 | 4.8 | 9.7 | 0.00 | 0.00 | 0.00 | 35 | 1022.5 |
| 20260905080516 | 27 | 57 | 1.6 | 6.4 | 0.00 | 0.00 | 0.00 | 37 | 1022.5 |
| 20260905075515 | 26 | 56 | 1.6 | 3.2 | 0.00 | 0.00 | 0.00 | 37 | 1022.5 |
| 20260905074516 | 26 | 0.0 | 1.6 | 0.00 | 0.00 | 0.00 | 38 | 1022.6 | |
| 20260905073516 | 25 | 46 | 1.6 | 8.0 | 0.00 | 0.00 | 0.00 | 38 | 1022.3 |
| 20260905072555 | 25 | 49 | 3.2 | 8.0 | 0.00 | 0.00 | 0.00 | 38 | 1022.2 |
| 20260905071515 | 25 | 47 | 6.4 | 9.7 | 0.00 | 0.00 | 0.00 | 39 | 1022.2 |
| 20260905070516 | 25 | 46 | 6.4 | 9.7 | 0.00 | 0.00 | 0.00 | 38 | 1022.1 |
| 20260905065515 | 25 | 39 | 3.2 | 9.7 | 0.00 | 0.00 | 0.00 | 38 | 1022.1 |
| 20260905064516 | 25 | 62 | 4.8 | 9.7 | 0.00 | 0.00 | 0.00 | 37 | 1022.2 |
| 20260905063516 | 25 | 50 | 6.4 | 9.7 | 0.00 | 0.00 | 0.00 | 37 | 1022.0 |
| 20260905062515 | 24 | 69 | 3.2 | 8.0 | 0.00 | 0.00 | 0.00 | 37 | 1021.8 |
| 20260905061555 | 25 | 53 | 3.2 | 6.4 | 0.00 | 0.00 | 0.00 | 37 | 1022.0 |
| 20260905060516 | 25 | 76 | 3.2 | 4.8 | 0.00 | 0.00 | 0.00 | 37 | 1022.0 |
| 20260905055515 | 25 | 72 | 3.2 | 6.4 | 0.00 | 0.00 | 0.00 | 37 | 1021.9 |
| 20260905054515 | 25 | 58 | 1.6 | 3.2 | 0.00 | 0.00 | 0.00 | 39 | 1022.0 |
| 20260905053516 | 25 | 58 | 1.6 | 3.2 | 0.00 | 0.00 | 0.00 | 38 | 1022.2 |
| 20260905052556 | 25 | 58 | 1.6 | 3.2 | 0.00 | 0.00 | 0.00 | 38 | 1022.2 |
| 20260905051515 | 25 | 53 | 1.6 | 4.8 | 0.00 | 0.00 | 0.00 | 40 | 1021.9 |
| 20260905050515 | 25 | 0.0 | 0.0 | 0.00 | 0.00 | 0.00 | 40 | 1021.8 | |
| 20260905045515 | 25 | 0.0 | 0.0 | 0.00 | 0.00 | 0.00 | 39 | 1021.8 | |
| 20260905044516 | 26 | 0.0 | 0.0 | 0.00 | 0.00 | 0.00 | 37 | 1021.7 | |
| 20260905043516 | 26 | 53 | 0.0 | 3.2 | 0.00 | 0.00 | 0.00 | 36 | 1021.7 |
| 20260905042516 | 26 | 0.0 | 0.0 | 0.00 | 0.00 | 0.00 | 36 | 1021.7 | |
| 20260905041515 | 26 | 53 | 1.6 | 3.2 | 0.00 | 0.00 | 0.00 | 35 | 1021.7 |
| 20260905035516 | 27 | 72 | 4.8 | 9.7 | 0.00 | 0.00 | 0.00 | 35 | 1021.5 |
| 20260905034516 | 26 | 79 | 3.2 | 4.8 | 0.00 | 0.00 | 0.00 | 36 | 1021.6 |
| 20260905033555 | 26 | 79 | 1.6 | 3.2 | 0.00 | 0.00 | 0.00 | 35 | 1021.6 |
| 20260905032515 | 26 | 0.0 | 3.2 | 0.00 | 0.00 | 0.00 | 34 | 1021.7 | |
| 20260905031555 | 26 | 79 | 3.2 | 4.8 | 0.00 | 0.00 | 0.00 | 33 | 1021.7 |
| 20260905030515 | 26 | 52 | 3.2 | 6.4 | 0.00 | 0.00 | 0.00 | 33 | 1021.6 |
| 20260905025516 | 26 | 52 | 3.2 | 6.4 | 0.00 | 0.00 | 0.00 | 32 | 1021.7 |
| 20260905024516 | 26 | 66 | 4.8 | 8.0 | 0.00 | 0.00 | 0.00 | 31 | 1021.6 |
| 20260905023516 | 26 | 56 | 4.8 | 9.7 | 0.00 | 0.00 | 0.00 | 31 | 1021.7 |
| 20260905022516 | 27 | 71 | 4.8 | 11.3 | 0.00 | 0.00 | 0.00 | 30 | 1021.8 |
| 20260905021516 | 27 | 77 | 6.4 | 11.3 | 0.00 | 0.00 | 0.00 | 30 | 1021.8 |
| 20260905020516 | 27 | 69 | 4.8 | 9.7 | 0.00 | 0.00 | 0.00 | 30 | 1021.8 |
| 20260905015516 | 27 | 56 | 4.8 | 9.7 | 0.00 | 0.00 | 0.00 | 30 | 1021.9 |
| 20260905014516 | 26 | 45 | 3.2 | 4.8 | 0.00 | 0.00 | 0.00 | 31 | 1021.8 |
| 20260905013516 | 27 | 47 | 0.0 | 1.6 | 0.00 | 0.00 | 0.00 | 30 | 1021.9 |
| 20260905012516 | 27 | 0.0 | 0.0 | 0.00 | 0.00 | 0.00 | 29 | 1021.8 | |
| 20260905011556 | 27 | 0.0 | 1.6 | 0.00 | 0.00 | 0.00 | 28 | 1021.9 | |
| 20260905010516 | 27 | 47 | 0.0 | 4.8 | 0.00 | 0.00 | 0.00 | 27 | 1022.0 |
| 20260905005516 | 28 | 70 | 3.2 | 8.0 | 0.00 | 0.00 | 0.00 | 27 | 1022.0 |
| 20260905004516 | 28 | 62 | 4.8 | 9.7 | 0.00 | 0.00 | 0.00 | 26 | 1021.9 |
| 20260905003516 | 27 | 87 | 4.8 | 8.0 | 0.00 | 0.00 | 0.00 | 25 | 1021.9 |
| 20260905002516 | 28 | 86 | 4.8 | 8.0 | 0.00 | 0.00 | 0.00 | 24 | 1021.9 |
| 20260905001516 | 28 | 66 | 6.4 | 9.7 | 0.00 | 0.00 | 0.00 | 24 | 1021.9 |
| 20260905000516 | 28 | 98 | 6.4 | 9.7 | 0.00 | 0.00 | 0.00 | 24 | 1021.9 |
| 20260904235515 | 28 | 80 | 4.8 | 9.7 | 0.00 | 0.00 | 0.00 | 25 | 1021.8 |
| 20260904234555 | 28 | 56 | 6.4 | 12.9 | 0.00 | 0.00 | 0.00 | 26 | 1021.6 |
| 20260904233515 | 28 | 54 | 8.0 | 12.9 | 0.00 | 0.00 | 0.00 | 25 | 1021.6 |
| 20260904232515 | 28 | 76 | 4.8 | 6.4 | 0.00 | 0.00 | 0.00 | 25 | 1021.6 |
| 20260904231555 | 28 | 77 | 3.2 | 8.0 | 0.00 | 0.00 | 0.00 | 24 | 1021.6 |
| 20260904230515 | 28 | 51 | 3.2 | 6.4 | 0.00 | 0.00 | 0.00 | 25 | 1021.6 |
| 20260904225516 | 28 | 58 | 3.2 | 9.7 | 0.00 | 0.00 | 0.00 | 26 | 1021.6 |
| 20260904224515 | 28 | 54 | 4.8 | 12.9 | 0.00 | 0.00 | 0.00 | 26 | 1021.5 |
| 20260904223515 | 28 | 79 | 1.6 | 6.4 | 0.00 | 0.00 | 0.00 | 26 | 1021.3 |
| 20260904222515 | 28 | 0.0 | 3.2 | 0.00 | 0.00 | 0.00 | 25 | 1021.3 | |
| 20260904221515 | 29 | 79 | 1.6 | 3.2 | 0.00 | 0.00 | 0.00 | 25 | 1021.3 |
| 20260904220516 | 29 | 79 | 1.6 | 3.2 | 0.00 | 0.00 | 0.00 | 23 | 1021.3 |
| 20260904215555 | 30 | 79 | 1.6 | 3.2 | 0.00 | 0.00 | 0.00 | 23 | 1021.4 |
| 20260904214516 | 30 | 79 | 3.2 | 4.8 | 0.00 | 0.00 | 0.00 | 23 | 1021.3 |
| 20260904213515 | 30 | 66 | 3.2 | 11.3 | 0.00 | 0.00 | 0.00 | 23 | 1021.3 |
| 20260904212515 | 30 | 49 | 8.0 | 11.3 | 0.00 | 0.00 | 0.00 | 23 | 1021.4 |
| 20260904211555 | 30 | 49 | 8.0 | 11.3 | 0.00 | 0.00 | 0.00 | 22 | 1021.1 |
| 20260904210515 | 30 | 46 | 6.4 | 9.7 | 0.00 | 0.00 | 0.00 | 22 | 1021.0 |
| 20260904205516 | 31 | 248 | 3.2 | 4.8 | 0.00 | 0.00 | 0.00 | 22 | 1021.0 |
| 20260904204516 | 30 | 248 | 1.6 | 4.8 | 0.00 | 0.00 | 0.00 | 22 | 1020.7 |
| 20260904203516 | 31 | 248 | 0.0 | 3.2 | 0.00 | 0.00 | 0.00 | 23 | 1020.6 |
| 20260904202555 | 31 | 248 | 1.6 | 3.2 | 0.00 | 0.00 | 0.00 | 22 | 1020.5 |
| 20260904201515 | 30 | 248 | 1.6 | 1.6 | 0.00 | 0.00 | 0.00 | 22 | 1020.3 |
| 20260904200515 | 30 | 248 | 1.6 | 1.6 | 0.00 | 0.00 | 0.00 | 22 | 1020.2 |
| 20260904195516 | 31 | 0.0 | 0.0 | 0.00 | 0.00 | 0.00 | 23 | 1020.2 | |
| 20260904194516 | 31 | 0.0 | 0.0 | 0.00 | 0.00 | 0.00 | 24 | 1019.9 | |
| 20260904193516 | 31 | 0.0 | 0.0 | 0.00 | 0.00 | 0.00 | 21 | 1020.0 | |
| 20260904192516 | 31 | 0.0 | 0.0 | 0.00 | 0.00 | 0.00 | 22 | 1019.9 | |
| 20260904191515 | 32 | 0.0 | 0.0 | 0.00 | 0.00 | 0.00 | 21 | 1019.7 | |
| 20260904190556 | 32 | 0.0 | 0.0 | 0.00 | 0.00 | 0.00 | 22 | 1019.7 | |
| 20260904185515 | 32 | 0.0 | 0.0 | 0.00 | 0.00 | 0.00 | 22 | 1019.6 | |
| 20260904184556 | 32 | 0.0 | 0.0 | 0.00 | 0.00 | 0.00 | 23 | 1019.6 | |
| 20260904183516 | 33 | 0.0 | 0.0 | 0.00 | 0.00 | 0.00 | 20 | 1019.8 |